Theta_e
319 318 318 319 318 318 319 318 317 317 317 317 317 318 318 318 319 319 320 320 321 321 320 320 321 322 314 304 303 313 318 314 320 318 312 310 306 304 298 300 300 298 300 303 304 306 310
318 319 318 318 318 318 318 317 316 317 317 317 317 317 318 318 318 319 319 320 320 320 320 320 321 320 308 299 311 314 310 310 317 316 312 311 307 306 303 300 299 301 300 301 303 304 305
318 318 318 318 317 317 317 317 317 316 317 317 318 317 317 318 318 318 319 319 319 319 319 320 320 313 305 302 312 313 309 310 314 315 311 313 312 306 305 300 303 302 296 298 300 302 304
317 318 318 317 318 317 317 317 316 316 317 317 317 317 317 317 317 317 318 318 318 319 319 320 319 310 302 311 314 310 311 309 312 312 315 314 314 306 304 304 299 296 297 290 298 300 303
317 317 317 317 317 317 317 316 316 315 317 317 317 317 317 316 316 316 317 317 318 319 318 318 311 307 299 314 307 310 309 306 308 310 312 312 308 302 301 296 294 294 289 290 292 300 301
317 317 317 317 317 317 317 316 316 315 315 317 317 316 316 315 316 317 317 316 317 313 309 312 310 301 304 301 307 308 310 307 305 307 305 304 302 299 298 295 286 288 289 291 290 296 300
316 317 317 317 317 316 316 316 315 316 316 316 316 316 315 316 316 317 312 308 304 302 305 301 301 300 302 307 309 307 308 305 304 303 297 300 296 292 294 294 294 292 290 290 293 296 297
315 317 316 316 316 316 315 316 316 315 315 316 315 315 316 316 316 315 310 304 303 304 298 301 301 302 305 306 300 304 308 301 300 295 299 296 292 296 296 296 294 292 290 290 293 295 297
314 316 316 316 316 315 315 315 316 315 315 315 315 315 315 315 314 313 307 305 309 307 298 298 301 301 302 304 299 301 304 300 297 295 294 292 294 297 295 294 292 291 290 290 289 294 296
314 315 315 315 315 315 314 314 315 315 315 314 314 315 314 313 310 309 305 307 308 307 294 293 296 300 302 302 297 303 304 300 298 294 294 293 296 294 294 292 293 288 292 291 290 291 287
314 314 315 315 315 314 313 314 314 314 314 314 313 314 313 310 308 304 306 308 307 302 290 294 296 304 302 298 299 299 304 300 295 294 294 291 293 293 291 292 294 291 294 292 291 291 289
314 314 314 314 314 314 313 313 313 313 313 313 313 313 311 308 309 307 308 306 304 296 288 291 295 294 296 296 297 299 299 301 299 294 293 293 295 295 294 295 294 294 292 291 291 291 285
314 314 314 314 314 314 313 312 312 312 312 313 313 312 309 307 303 309 307 303 296 289 291 290 291 293 292 292 294 295 294 293 291 289 289 291 291 294 295 292 294 294 291 285 283 284 282
314 314 313 313 313 313 313 313 313 312 312 313 312 309 307 307 308 307 304 296 289 288 289 292 291 292 290 291 292 292 292 291 292 292 289 286 285 290 294 292 291 291 290 285 277 279 282
314 314 313 313 312 312 312 313 313 313 313 312 309 308 307 306 307 306 299 294 291 290 291 290 291 289 289 290 290 290 289 290 291 292 286 286 286 291 293 294 293 289 289 289 286 284 282
314 314 313 312 311 312 312 312 312 313 312 310 306 306 305 306 305 302 296 291 290 292 293 292 287 289 287 288 288 288 288 291 291 292 292 289 284 289 291 294 292 291 291 286 287 279 277
314 314 313 312 311 311 311 311 312 312 312 310 306 299 305 305 303 299 294 291 291 294 294 290 289 289 288 287 288 287 288 291 293 291 292 290 287 288 289 289 288 289 288 287 286 285 280
314 313 313 312 311 311 311 311 311 311 310 306 303 293 304 304 295 292 291 290 293 293 295 293 291 290 288 289 288 287 287 290 294 294 289 290 287 283 286 289 291 290 289 289 284 282 284
314 313 312 312 311 310 310 311 311 311 308 301 295 295 304 302 291 290 291 291 292 291 292 291 290 291 291 289 286 288 288 293 295 293 290 290 286 282 283 287 288 286 288 288 286 285 283
313 313 313 312 311 310 311 310 311 310 308 302 295 292 295 298 293 291 290 290 290 292 291 291 290 291 289 288 289 288 287 291 294 293 295 293 287 284 280 283 286 284 286 288 287 283 284
313 313 313 312 311 310 309 310 310 310 307 301 295 291 293 291 291 291 292 290 288 289 291 291 288 289 288 286 286 286 288 289 291 293 293 291 285 286 285 287 287 286 285 286 284 285 282
314 313 313 312 312 310 308 309 309 309 305 298 292 293 294 293 290 291 292 291 290 290 290 289 288 289 289 287 289 287 288 288 288 291 290 289 285 285 282 286 286 283 286 286 286 286 285
313 313 313 312 311 309 309 308 308 308 303 298 298 297 295 289 288 290 290 291 290 291 292 292 291 290 287 290 293 293 293 292 292 290 289 288 286 283 280 284 284 281 286 288 287 287 286
313 313 312 312 311 310 310 309 309 308 304 301 299 297 294 287 287 288 289 290 289 290 289 292 291 290 293 295 295 293 292 290 291 290 291 287 285 285 281 283 276 286 290 290 288 289 288
312 312 312 312 311 310 310 309 309 309 305 302 299 297 294 288 288 288 287 287 288 289 288 289 292 293 295 293 289 285 285 284 286 287 287 289 287 283 279 280 284 286 287 287 287 288 293
313 312 312 311 311 310 310 310 309 309 307 303 301 300 297 290 288 290 288 288 287 287 287 288 293 295 294 291 287 281 281 283 281 283 286 286 287 284 281 277 276 286 290 292 292 284 293
313 312 311 311 311 311 310 310 310 309 309 304 303 302 297 290 294 292 290 289 290 288 287 288 290 292 293 288 284 283 283 285 280 281 281 282 282 280 281 280 283 290 291 291 282 286 293
313 312 312 310 309 307 307 306 305 305 304 305 304 301 298 292 294 292 293 292 293 291 289 291 290 289 289 285 286 286 284 286 282 285 284 283 281 280 282 279 277 293 289 286 292 294 294
307 306 306 305 305 304 303 302 302 301 302 303 300 302 301 294 294 298 299 300 298 298 294 291 290 287 290 288 288 287 285 285 284 280 285 280 285 283 285 285 292 292 294 295 294 295 295
Wind_Speed
7 7 8 9 10 11 11 12 11 11 10 10 9 10 10 10 12 13 14 14 14 13 13 14 15 16 5 4 7 8 13 10 6 6 6 6 5 4 2 3 3 9 3 8 5 6 6
5 7 8 9 10 11 11 11 11 10 10 10 10 10 11 11 11 12 14 14 14 13 12 12 12 13 3 10 6 8 8 6 6 7 4 4 5 6 5 3 4 4 9 9 6 6 6
5 6 7 8 9 10 10 11 11 11 10 11 11 10 10 11 12 12 13 14 15 15 13 11 9 4 3 6 5 8 5 4 3 5 7 2 4 7 6 3 5 4 6 9 9 5 3
4 6 7 7 8 9 9 9 10 11 10 9 10 11 11 10 11 13 13 14 15 15 12 7 6 3 4 2 7 5 7 4 4 5 6 7 4 5 4 4 2 4 4 8 9 5 2
4 5 6 6 7 8 9 10 9 9 10 10 10 10 11 11 11 12 14 15 14 9 6 3 2 4 4 8 8 8 3 8 9 3 3 5 3 2 3 4 4 1 2 3 4 2 4
5 6 6 7 7 8 9 10 10 9 9 9 10 11 10 11 11 12 15 11 4 4 2 2 2 4 2 8 8 7 4 5 4 8 3 3 2 0 5 5 5 3 1 2 1 4 3
4 6 7 7 8 9 9 10 10 10 10 9 10 10 11 11 11 12 8 1 2 3 4 2 3 3 8 10 4 4 4 5 2 1 6 5 6 7 6 4 2 3 2 3 4 4 3
5 6 6 7 8 9 9 9 10 10 10 10 9 10 10 11 11 9 2 5 3 3 5 2 3 6 5 3 5 6 9 5 4 7 8 1 11 9 5 4 3 2 3 4 0 5 4
4 5 6 6 7 8 8 9 10 11 10 9 9 8 10 12 6 3 6 4 3 2 4 2 2 4 4 2 4 6 9 5 4 7 7 4 6 8 5 4 4 5 6 6 5 7 1
2 3 5 5 6 7 8 9 9 10 10 9 9 10 10 13 1 1 3 3 1 2 2 7 2 1 2 2 2 2 3 3 2 7 6 2 5 6 5 3 7 2 4 5 5 6 3
1 2 4 5 6 6 7 8 9 9 9 10 9 9 9 9 2 2 2 3 1 3 3 8 3 3 6 4 7 2 1 1 5 7 4 5 7 6 4 4 6 4 6 4 3 3 5
2 2 3 4 6 7 7 8 9 9 10 10 9 8 6 1 1 2 2 1 3 1 3 4 3 7 6 3 4 6 2 1 0 2 2 3 2 3 4 5 3 6 5 3 1 2 3
3 0 3 3 5 7 8 9 10 10 12 11 7 6 2 0 1 2 2 2 2 3 1 4 4 5 4 5 5 7 6 6 6 7 9 5 1 1 2 5 3 4 5 2 2 3 3
5 3 1 3 4 6 7 9 11 12 13 10 4 2 3 2 2 1 2 1 1 1 3 2 2 5 3 6 0 6 4 5 2 2 4 6 3 2 2 2 4 4 5 3 5 3 5
6 4 2 3 3 5 7 8 11 12 12 7 1 1 0 2 3 2 2 1 3 3 1 2 3 4 1 1 3 5 2 3 2 2 5 6 4 2 2 2 4 3 1 4 6 2 5
9 6 4 2 2 4 6 9 11 12 13 4 1 0 1 4 3 1 0 4 2 1 4 1 2 1 4 3 4 4 3 2 1 1 2 2 7 1 2 2 2 3 1 3 2 5 5
9 8 6 3 1 3 5 7 10 13 14 2 1 2 2 3 2 1 2 4 3 3 3 2 2 3 4 4 2 3 3 1 2 2 1 2 3 1 3 2 3 3 3 3 4 4 6
11 10 8 5 2 4 5 7 10 13 12 3 1 2 2 2 2 0 2 3 0 3 2 3 2 4 3 2 4 4 4 3 2 3 3 1 2 6 5 1 1 4 4 5 4 4 4
14 12 11 7 5 2 3 6 9 12 10 0 1 2 2 2 4 2 1 2 2 4 3 4 4 6 2 3 5 5 3 1 5 3 2 4 3 6 4 3 3 5 4 5 3 3 12
14 13 10 9 7 4 1 4 7 10 7 1 1 3 1 1 1 1 1 2 2 2 2 3 1 2 3 4 7 4 3 2 5 4 3 4 4 9 9 15 4 11 11 8 8 9 15
15 13 11 10 8 6 2 3 6 8 5 2 0 2 2 1 3 2 1 1 2 3 3 5 3 9 6 4 3 7 5 4 4 3 4 4 7 7 14 18 14 18 21 16 17 21 13
12 11 12 12 10 7 5 1 4 7 3 1 2 2 2 1 2 2 3 4 6 3 5 4 6 2 10 7 10 14 5 4 6 4 5 4 6 2 11 12 13 13 20 16 17 19 21
13 13 13 11 10 7 3 3 3 6 3 1 1 1 2 2 2 3 3 4 3 2 4 3 6 2 6 15 16 16 12 11 11 9 8 6 5 3 10 4 12 14 18 8 5 8 9
13 13 11 10 10 6 3 4 3 2 4 0 1 0 2 3 3 4 1 2 3 3 5 2 3 5 2 2 4 5 9 12 14 18 15 9 5 4 9 8 7 3 4 6 12 12 15
12 11 11 10 7 5 5 4 3 3 4 2 1 1 1 3 2 7 7 5 6 4 6 9 9 4 3 3 5 6 5 5 6 4 8 14 10 6 6 9 12 14 4 6 7 8 12
11 11 9 8 6 6 6 5 5 4 7 2 2 1 1 1 3 3 2 2 4 5 3 4 2 1 1 2 3 6 8 7 5 3 3 6 11 8 4 7 8 4 2 2 3 11 2
9 9 9 7 5 4 5 5 7 5 5 3 1 4 2 2 4 5 5 3 2 3 5 4 2 2 2 4 6 8 13 5 8 9 7 6 5 14 13 10 7 11 4 4 5 3 5
6 6 9 14 15 15 13 12 11 10 10 2 1 4 2 4 4 8 6 11 8 6 7 1 4 4 2 6 5 6 6 5 5 8 6 11 8 7 6 7 11 10 5 7 6 2 6
21 20 19 18 18 17 14 13 11 9 10 2 1 1 0 3 4 2 8 14 16 15 9 4 3 2 3 4 4 4 4 2 5 11 2 8 12 11 11 10 4 11 6 11 4 5 3
Wind_Direction
36 22 13 10 15 16 10 9 5 359 352 351 347 342 343 332 325 320 316 318 318 322 327 329 334 337 327 18 357 344 330 332 316 333 14 353 353 331 298 297 270 232 233 235 299 300 325
33 31 19 13 13 14 10 10 2 358 354 350 347 342 336 326 320 317 313 314 313 314 319 323 332 326 311 28 343 324 326 323 340 325 343 351 345 330 300 291 277 328 255 259 282 297 297
27 29 33 13 9 12 11 11 2 356 357 352 341 335 331 321 319 314 312 310 308 308 311 314 327 323 277 3 322 322 317 306 301 301 306 302 308 304 328 276 341 284 259 227 244 255 296
35 16 29 26 5 6 4 10 7 354 352 346 337 330 325 324 322 316 311 305 302 301 302 304 322 289 292 277 314 324 326 320 293 287 267 298 274 280 270 309 243 251 256 195 195 244 174
15 28 13 22 13 6 1 6 360 2 346 343 333 331 328 329 328 316 305 302 299 293 293 307 259 309 2 327 343 335 315 321 321 319 281 275 266 315 267 296 172 187 145 220 182 225 278
4 12 8 10 12 9 5 2 359 353 341 342 338 334 332 329 326 315 308 303 297 283 223 178 212 246 331 327 318 316 319 318 324 325 265 345 310 15 35 11 48 27 50 121 196 45 233
2 7 8 5 9 5 14 360 355 351 341 342 342 336 329 327 330 331 333 322 252 181 33 33 333 273 294 320 275 315 337 323 316 35 2 18 34 28 6 9 359 319 294 8 58 14 266
342 360 14 3 8 5 9 5 357 356 348 340 345 335 328 326 332 339 359 56 52 359 306 199 264 270 269 312 300 347 347 355 4 15 351 30 31 355 303 291 308 3 0 20 94 10 275
339 354 8 4 3 7 9 6 5 3 354 344 337 336 333 325 331 26 60 69 333 242 273 298 273 282 309 272 315 306 354 336 349 357 11 12 7 330 314 359 354 46 21 12 336 322 236
319 351 355 1 2 5 9 7 8 9 356 348 338 333 345 329 164 10 52 355 329 230 295 5 4 25 278 273 242 285 2 331 336 335 345 338 341 344 343 18 336 34 6 316 314 321 312
272 336 353 355 357 4 8 7 4 6 357 347 339 334 350 21 103 71 8 324 200 229 39 356 330 339 331 324 328 132 34 245 329 336 302 25 345 358 18 359 332 358 333 331 317 321 301
176 330 356 360 356 0 3 3 1 355 349 341 331 328 332 48 68 64 308 243 226 222 312 5 301 352 346 7 340 310 348 118 248 296 283 307 316 297 334 309 289 309 276 273 271 282 267
189 132 333 22 1 353 0 359 357 352 346 334 315 319 25 309 48 319 237 201 3 78 70 335 337 350 338 316 328 360 355 22 23 351 4 331 2 303 300 304 187 327 318 295 246 207 273
201 145 338 355 8 354 358 356 356 350 349 345 339 349 15 35 313 276 244 201 51 49 244 54 315 297 315 359 285 332 336 16 92 4 317 340 323 10 24 359 320 354 326 320 308 304 319
177 163 136 305 7 357 351 358 354 349 345 338 28 45 62 7 325 279 260 7 222 206 73 307 287 289 290 145 310 331 333 312 308 333 6 337 295 334 308 335 307 50 321 358 291 227 265
156 173 158 242 346 346 350 352 355 351 348 356 10 339 152 332 319 268 190 246 232 142 135 169 274 306 302 324 318 336 313 134 202 293 299 86 290 152 331 228 112 298 45 260 208 292 293
164 176 172 195 280 318 345 353 354 352 352 344 64 278 90 333 270 199 221 233 243 196 171 198 247 264 257 299 290 299 291 208 196 163 262 180 258 256 262 215 319 183 195 191 289 261 291
185 185 182 174 234 306 345 346 357 357 358 32 87 269 43 296 246 339 210 196 186 185 162 216 237 241 246 254 267 262 261 256 143 177 285 169 287 275 310 77 2 301 282 242 251 247 244
187 189 180 171 211 231 6 347 0 7 16 20 292 290 94 284 247 209 246 267 242 180 204 187 224 223 189 237 273 230 250 203 173 213 226 168 224 295 284 158 152 244 206 232 280 320 255
193 190 184 182 195 205 345 346 352 4 17 311 151 276 126 112 323 222 240 238 253 225 214 194 250 172 183 236 225 277 259 255 196 213 160 183 234 242 267 291 319 272 258 226 235 265 267
199 189 186 186 191 199 218 321 349 350 18 290 44 227 53 221 221 220 249 179 211 250 218 208 203 229 194 254 237 228 237 255 195 206 181 225 253 237 251 269 275 267 274 266 233 244 251
194 194 192 191 201 200 217 292 350 338 52 127 259 219 147 284 247 201 191 226 209 221 202 208 228 186 208 227 233 276 234 218 268 169 193 197 262 260 288 277 274 269 274 259 248 255 256
190 195 202 200 200 201 219 270 317 349 69 289 109 96 288 125 209 190 214 225 212 170 225 264 221 242 226 240 257 263 274 271 256 245 226 204 236 235 265 333 309 274 257 216 204 219 226
193 199 201 199 199 209 228 255 265 15 71 110 71 342 198 253 233 218 288 266 262 227 266 292 200 245 293 328 288 256 248 250 248 242 237 224 213 232 278 288 240 317 301 264 261 252 218
187 191 197 208 207 213 236 238 234 215 103 78 131 224 185 260 283 271 249 255 287 267 239 249 254 286 341 297 272 278 245 242 236 238 238 228 218 240 253 236 299 291 211 188 199 287 244
191 183 183 193 201 221 242 241 230 213 163 128 192 123 134 230 235 290 340 304 294 292 279 242 224 83 146 243 235 262 281 293 244 188 39 192 232 231 196 248 272 347 87 170 163 285 246
189 185 184 186 186 139 100 80 75 69 183 161 209 193 147 199 255 187 234 249 209 278 265 290 279 237 187 218 256 264 260 232 248 239 181 162 188 221 235 267 272 267 190 146 239 291 164
207 182 131 117 109 101 98 94 82 63 40 165 245 197 189 217 228 192 199 251 253 238 255 300 304 214 200 224 246 251 249 232 264 261 219 209 195 198 211 247 271 209 115 214 255 313 297
106 103 100 99 98 96 89 81 72 56 32 13 249 60 38 217 261 340 263 257 255 252 263 216 244 271 261 268 260 300 277 265 309 274 202 252 228 258 210 239 295 200 236 230 270 285 261